Flag for Canada Weather past 2 weeks in Whitehorse, Yukon Territory, Canada

Now
48 °F

Scattered clouds.


Feels Like: 43 °F
Forecast: 39 / 58 °F
Wind: 12 mph from South

Location: Withehorse

Current Time: Sep 2, 2014 at 1:56:40 PM

Latest Report: Sep 2, 2014 at 1:00 PM


Visibility: 40 mi

Pressure: 29.96 "Hg

Humidity: 71%

Dew point: 39 °F

Location of WhitehorseLocation

Historic Weather in Whitehorse — Graph

°F

Whitehorse temperature yesterday

Maximum temperature yesterday: 52 °F (at 5:00 PM)
Minimum temperature yesterday: 39 °F (at 7:00 AM)
Average temperature yesterday: 45 °F

Past Weeks' High & Low Weather Summary

 TemperatureHumidityPressure
High68 °F (Aug 22, 3:00 PM)100% (Aug 20, 4:00 AM)30.29 "Hg (Aug 20, 4:00 AM)
Low32 °F (Sep 2, 4:00 AM)32% (Aug 27, 6:00 PM)29.54 "Hg (Aug 29, 8:00 PM)
Average51 °F75%29.93 "Hg
* Reported Aug 18 12:00 Noon — Sep 2 12:00 Noon, Whitehorse, Weather by CustomWeather, © 2014

Note: Actual official high and low records may vary slightly from our data, if they occured in-between our weather recording intervals... More about our weather records

Advertising

Whitehorse weather history for previous 24 hours

 ConditionsComfort  
Time TempWeatherWind HumidityBarometerVisibility
12:00 PM
Sep 2
46 °FPartly sunny.9 mph71%29.97 "Hg40 mi
11:00 AM43 °FPartly sunny.13 mph81%29.98 "Hg40 mi
10:00 AM41 °FFog.12 mph87%29.99 "Hg6 mi
9:00 AM37 °FFog.9 mph100%29.99 "Hg1 mi
8:00 AM36 °FFog.7 mph100%29.99 "Hg1 mi
7:00 AM36 °FFog.9 mph100%29.98 "Hg0 mi
6:00 AM34 °FPassing clouds.10 mph100%29.98 "Hg15 mi
5:00 AM34 °FPassing clouds.5 mph93%29.97 "Hg10 mi
4:00 AM32 °FPassing clouds.No wind100%29.98 "Hg10 mi
3:00 AM34 °FPassing clouds.6 mph93%29.98 "Hg15 mi
2:00 AM34 °FPassing clouds.2 mph87%29.97 "Hg15 mi
1:00 AM36 °FPassing clouds.5 mph87%29.96 "Hg15 mi
12:00 AM39 °FPassing clouds.5 mph81%29.95 "Hg15 mi
11:00 PM
Sep 1
43 °FPassing clouds.5 mph81%29.94 "Hg15 mi
10:00 PM43 °FPassing clouds.8 mph76%29.92 "Hg40 mi
9:00 PM46 °FPassing clouds.7 mph71%29.90 "Hg40 mi
8:00 PM52 °FPassing clouds.5 mph50%29.88 "Hg40 mi
7:00 PM52 °FPassing clouds.5 mph50%29.88 "Hg40 mi
6:00 PM52 °FPassing clouds.6 mph54%29.87 "Hg40 mi
5:00 PM52 °FBroken clouds.9 mph58%29.87 "Hg30 mi
4:00 PM50 °FBroken clouds.6 mph67%29.87 "Hg30 mi
3:00 PM50 °FCloudy.5 mph62%29.87 "Hg30 mi
2:00 PM46 °FPartly sunny.6 mph76%29.87 "Hg25 mi
1:00 PM43 °FLight rain. Mostly cloudy.5 mph87%29.87 "Hg20 mi
Weather by CustomWeather, © 2014

See weather overviewHow to use our weather pages